This demonstration page uses our WeatherBlox Daily Observations layout. Learn more.

Left ArrowRight Arrow

39.01783, -85.05884

Hourly Observations for August 5, 2017

Temp ( °F °C ) Dew Point ( °F °C ) Humidity (%) Winds ( mph kmh ) Pressure ( in mb ) Visibility ( mi km ) Precip ( " mm )
12:52 am 00:52 Clear 58 14.4 54 12.2 87 87 WSW 5 7 30.03 1017 10 16 0.00 0.00
1:52 am 01:52 Mostly Cloudy 58 14.4 54 12.2 87 87 SW 3 6 30.03 1017 10 16 0.00 0.00
2:52 am 02:52 Clear 57 13.9 54 12.2 90 90 W 7 11 30.03 1017 10 16 0.00 0.00
3:52 am 03:52 Clear 56 13.3 54 12.2 93 93 WSW 5 7 30.04 1017 10 16 0.00 0.00
4:52 am 04:52 Clear 55 12.8 54 12.2 96 96 WSW 5 7 30.06 1018 10 16 0.00 0.00
5:52 am 05:52 Clear 53 11.7 53 11.7 100 100 S 3 6 30.07 1018 10 16 0.00 0.00
6:52 am 06:52 Sunny 52 11.1 52 11.1 100 100 SSW 3 6 30.09 1019 10 16 0.00 0.00
7:52 am 07:52 Sunny 57 13.9 56 13.3 96 96 SSW 3 6 30.10 1019 10 16 0.00 0.00
8:52 am 08:52 Sunny 61 16.1 56 13.3 84 84 SW 7 11 30.12 1020 10 16 0.00 0.00
9:52 am 09:52 Sunny 65 18.3 56 13.3 73 73 SSW 7 11 30.12 1020 10 16 0.00 0.00
10:52 am 10:52 Sunny 68 20 55 12.8 63 63 SSW 8 13 30.11 1020 10 16 0.00 0.00
11:52 am 11:52 Mostly Sunny 71 21.7 57 13.9 61 61 SSW 6 9 30.10 1019 10 16 0.00 0.00
12:52 pm 12:52 Partly Cloudy 74 23.3 54 12.2 50 50 VRB 7 11 30.10 1019 10 16 0.00 0.00
1:52 pm 13:52 Partly Cloudy 75 23.9 55 12.8 50 50 WSW 7 11 30.10 1019 10 16 0.00 0.00
2:52 pm 14:52 Mostly Cloudy 76 24.4 55 12.8 48 48 NW 9 15 30.08 1019 10 16 0.00 0.00
3:52 pm 15:52 Cloudy 76 24.4 55 12.8 48 48 WSW 6 9 30.09 1019 10 16 0.00 0.00
4:52 pm 16:52 Cloudy 76 24.4 55 12.8 48 48 W 10 17 30.09 1019 10 16 0.00 0.00
5:52 pm 17:52 Cloudy 75 23.9 55 12.8 50 50 W 7 11 30.09 1019 10 16 0.00 0.00
6:52 pm 18:52 Cloudy 74 23.3 57 13.9 56 56 SW 5 7 30.08 1019 10 16 0.00 0.00
7:52 pm 19:52 Cloudy 71 21.7 58 14.4 63 63 Calm 30.08 1019 10 16 0.00 0.00
8:52 pm 20:52 Cloudy 70 21.1 58 14.4 66 66 WSW 3 6 30.07 1018 10 16 0.00 0.00
9:52 pm 21:52 Cloudy 68 20 60 15.6 76 76 Calm 30.08 1019 10 16 0.00 0.00
10:52 pm 22:52 Cloudy 67 19.4 59 15 76 76 Calm 30.08 1019 10 16 0.00 0.00
11:52 pm 23:52 Cloudy 63 17.2 60 15.6 90 90 Calm 30.06 1018 10 16 0.00 0.00

Powered by AerisWeather